Back to catalog

ARABSAT 1DR

TELSTAR 3A

AliveCommunicationsGEO
NORAD 14234·PAYLOAD·🇦🇪 UAE🇸🇦 Saudi Arabia

Launched Jul 28, 1983 from Cape Canaveral Space Force Station

Loading…

TLE

FreshSource: Space-Track

Epoch: Sep 13, 2026, 17:34 UTC

1 14234U 83077A   26256.73216400 -.00000062  00000-0  00000-0 0  9992
2 14234  13.7226 341.3289 0025968 178.2548 181.7750  0.99519761 47212

Track ARABSAT 1DR in real time with AllMySat

Download on the App Store